Location: Brighton Point
(40.6144°N, 111.7933°W)
Time: 13:29:59
(UTC+00:00)

ISS - Pass Details

Date: 12 March 2021
Orbit: 418 x 422 km, 51.6° (Epoch: 17 April)

Event Time Altitude Azimuth Distance (km) Brightness Sun altitude
Exits shadow 12:33:39 28° 270° (W) 820 -2.9 -14.0°
Maximum altitude 12:34:51 39° 223° (SW) 638 -3.2 -13.8°
Drops below altitude 10° 12:37:59 10° 153° (SSE) 1,488 -0.7 -13.2°
Sets 12:40:09 0° 145° (SE) 2,348 0.4 -12.8°
